Stations météo

réclame
Mon MeteoGroup
Lyon/Bron, France (7480): Température de l'air & dewpoint: 08.10.2019 20:00:00 - 14.10.2019 20:00:00 (CEST)Lyon/Bron, France (7480): Température de l'air 5cm: 08.10.2019 20:00:00 - 14.10.2019 20:00:00 (CEST)Lyon/Bron, France (7480): Température de l'air -20cm: 08.10.2019 20:00:00 - 14.10.2019 20:00:00 (CEST)Lyon/Bron, France (7480): Vitesse du vent & gusts: 08.10.2019 20:00:00 - 14.10.2019 20:00:00 (CEST)Lyon/Bron, France (7480): Direction du vent: 08.10.2019 20:00:00 - 14.10.2019 20:00:00 (CEST)Lyon/Bron, France (7480): reduced air pressure: 08.10.2019 20:00:00 - 14.10.2019 20:00:00 (CEST)Lyon/Bron, France (7480): visibility: 08.10.2019 20:00:00 - 14.10.2019 20:00:00 (CEST)Lyon/Bron, France (7480): Ensoleillement: 08.10.2019 20:00:00 - 14.10.2019 20:00:00 (CEST)Lyon/Bron, France (7480): Quantités de précipitations: 08.10.2019 20:00:00 - 14.10.2019 20:00:00 (CEST)
Date & Time tt [°C] td [°C] tt 5cm [°C] tt -20cm [°C] ff [km/h] ff [knt] fx [km/h] fx [knt] dd ppp [hPa] vv [km] sd [min] rr [mm]
14.10.2019 20:00:00 21,8 14,7 20,6 18,4 21 11 49 27 S 1010,3 30 0 0,0
14.10.2019 19:00:00 22,5 14,3 21,6 18,2 27 14 53 29 S 1010,1 34 17 0,0
14.10.2019 18:00:00 23,7 13,8 23,8 18,1 31 17 69 37 S 1010,0 33 15 0,0
14.10.2019 17:00:00 24,4 13,0 24,2 17,9 38 20 79 42 S 1010,0 30 42 0,0
14.10.2019 16:00:00 25,5 12,3 27,3 17,6 41 22 81 44 S 1009,7 18 60 0,0
14.10.2019 15:00:00 25,6 12,4 27,1 17,5 41 22 86 47 S 1010,6 24 60 0,0
14.10.2019 14:00:00 24,5 12,1 26,6 17,3 47 25 84 45 S 1012,0 23 60 0,0
14.10.2019 13:00:00 24,1 12,7 26,1 17,2 42 23 80 43 S 1013,2 27 60 0,0
14.10.2019 12:00:00 23,0 12,9 24,8 17,1 41 22 72 39 S 1014,3 33 60 0,0
14.10.2019 11:00:00 21,8 12,9 23,1 17,1 40 22 67 36 S 1015,0 38 60 0,0
14.10.2019 10:00:00 20,5 12,7 20,2 17,2 23 12 51 28 S 1015,0 41 60 0,0
14.10.2019 09:00:00 19,0 12,0 17,4 17,3 20 11 38 20 S 1014,7 40 13 0,0
14.10.2019 08:00:00 18,5 11,8 16,9 17,4 13 7 30 16 SSE 1014,6 50 0 0,0
14.10.2019 07:00:00 18,2 12,0 16,8 17,4 15 8 32 17 ESE 1014,9 58 0 0,0
14.10.2019 06:00:00 18,3 12,5 16,8 17,5 15 8 30 16 SE 1015,2 53 0 0,0
14.10.2019 05:00:00 18,4 12,6 16,2 17,6 18 10 34 18 S 1015,5 56 0 0,0
14.10.2019 04:00:00 18,1 12,5 16,5 17,7 16 9 40 22 S 1016,0 56 0 0,0
14.10.2019 03:00:00 18,4 12,8 17,3 17,8 27 14 48 26 S 1016,2 54 0 0,0
14.10.2019 02:00:00 18,9 13,3 17,8 17,9 35 19 54 29 S 1016,1 47 0 0,0
14.10.2019 01:00:00 18,9 13,5 17,9 17,9 28 15 55 30 S 1016,6 48 0 0,0
14.10.2019 00:00:00 19,6 13,5 18,0 18,0 35 19 56 30 S 1016,5 53 0 0,0
13.10.2019 23:00:00 19,8 13,0 15,7 18,1 19 11 42 23 S 1017,0 58 0 0,0
13.10.2019 22:00:00 19,3 12,1 16,0 18,1 6 4 21 11 SE 1016,8 58 0 0,0
13.10.2019 21:00:00 20,0 11,5 17,6 18,1 9 5 26 14 S 1016,2 60 0 0,0
13.10.2019 20:00:00 20,7 11,1 18,7 18,1 13 7 36 19 S 1015,9 59 0 0,0
13.10.2019 19:00:00 22,1 10,9 20,5 18,0 18 10 50 27 S 1015,5 60 12 0,0
13.10.2019 18:00:00 23,6 10,6 24,4 17,8 26 14 57 31 S 1014,9 53 60 0,0
13.10.2019 17:00:00 24,7 9,4 25,7 17,6 40 22 72 39 S 1014,6 27 60 0,0
13.10.2019 16:00:00 25,2 9,5 27,7 17,3 32 18 59 32 S 1015,1 25 60 0,0
13.10.2019 15:00:00 25,2 8,6 27,4 17,2 28 15 66 36 S 1015,5 23 60 0,0
13.10.2019 14:00:00 24,5 6,7 26,8 17,0 41 22 68 37 S 1016,3 22 60 0,0
13.10.2019 13:00:00 23,9 8,7 26,3 16,9 29 16 75 40 S 1017,1 23 60 0,0
13.10.2019 12:00:00 22,7 10,8 24,3 16,8 40 21 71 38 S 1017,0 21 60 0,0
13.10.2019 11:00:00 21,4 12,3 22,3 16,8 32 17 63 34 S 1016,9 20 60 0,0
13.10.2019 10:00:00 19,9 11,9 18,4 16,9 32 17 54 29 S 1016,6 48 17 0,0
13.10.2019 09:00:00 18,9 12,2 17,9 16,9 16 9 53 29 S 1016,8 48 0 0,0
13.10.2019 08:00:00 18,7 12,7 17,5 16,9 27 15 54 29 S 1016,0 38 0 0,0
13.10.2019 07:00:00 18,5 13,4 17,5 17,0 26 14 61 33 S 1016,0 35 0 0,0
13.10.2019 06:00:00 18,9 13,7 18,1 17,0 37 20 69 37 S 1015,9 40 0 0,0
13.10.2019 05:00:00 19,0 13,8 17,8 17,0 29 16 51 27 S 1016,5 41 0 0,0
13.10.2019 04:00:00 18,8 13,9 17,8 17,0 24 13 44 24 S 1016,8 43 0 0,0
13.10.2019 03:00:00 19,0 13,8 18,1 17,0 22 12 59 32 SSE 1017,3 44 0 0,0
13.10.2019 02:00:00 19,4 13,8 18,6 17,1 34 18 64 35 S 1016,9 32 0 0,0
13.10.2019 01:00:00 19,4 14,0 18,7 17,1 40 22 70 38 S 1016,7 31 0 0,0
13.10.2019 00:00:00 19,4 14,2 18,7 17,1 42 23 73 39 S 1016,9 30 0 0,0
12.10.2019 23:00:00 19,3 14,1 18,3 17,1 41 22 65 35 S 1017,0 30 0 0,0
12.10.2019 22:00:00 18,9 14,4 18,1 17,1 36 19 67 36 S 1017,2 27 0 0,0
12.10.2019 21:00:00 19,2 14,7 18,4 17,1 36 20 65 35 S 1017,3 27 0 0,0
12.10.2019 20:00:00 19,4 14,9 18,8 17,0 36 19 66 35 S 1017,2 28 0 0,0
12.10.2019 19:00:00 19,5 14,7 19,0 17,0 42 23 68 37 S 1016,9 32 0 0,0
12.10.2019 18:00:00 19,6 14,8 19,4 16,8 38 21 67 36 S 1016,6 31 0 0,0
12.10.2019 17:00:00 20,0 14,6 20,2 16,7 37 20 64 35 S 1016,8 26 0 0,0
12.10.2019 16:00:00 20,3 14,6 21,0 16,6 34 18 58 31 S 1017,1 50 6 0,0
12.10.2019 15:00:00 20,4 15,0 20,6 16,4 37 20 64 35 S 1017,3 51 0 0,0
12.10.2019 14:00:00 20,0 14,6 20,2 16,3 35 19 68 37 S 1017,6 20 0 0,0
12.10.2019 13:00:00 21,1 14,5 21,3 16,2 40 22 71 39 S 1018,1 24 13 0,0
12.10.2019 12:00:00 20,6 14,5 21,7 16,1 42 23 71 38 S 1017,4 25 47 0,0
12.10.2019 11:00:00 20,8 14,2 21,4 16,1 38 21 64 35 S 1017,0 20 52 0,0
12.10.2019 10:00:00 19,7 13,4 19,7 16,1 28 15 50 27 S 1017,0 44 56 0,0
12.10.2019 09:00:00 18,7 12,0 17,0 16,2 26 14 53 28 S 1017,2 52 25 0,0
12.10.2019 08:00:00 18,2 11,5 17,1 16,2 27 15 46 25 S 1017,1 36 0 0,0
12.10.2019 07:00:00 18,2 11,7 16,7 16,3 25 13 47 25 S 1017,4 31 0 0,0
12.10.2019 06:00:00 18,1 11,4 16,3 16,3 22 12 44 24 S 1017,7 32 0 0,0
12.10.2019 05:00:00 17,5 11,1 16,4 16,4 30 16 59 32 S 1017,6 19 0 0,0
12.10.2019 04:00:00 17,9 9,8 16,4 16,5 31 17 56 30 S 1017,7 49 0 0,0
12.10.2019 03:00:00 17,6 10,7 16,5 16,5 28 15 60 33 S 1018,2 44 0 0,0
12.10.2019 02:00:00 18,0 11,5 16,5 16,6 32 17 54 29 S 1018,2 39 0 0,0
12.10.2019 01:00:00 17,5 11,1 16,4 16,6 29 15 48 26 S 1018,2 41 0 0,0
12.10.2019 00:00:00 17,8 10,4 16,7 16,8 27 15 48 26 S 1018,3 46 0 0,0
11.10.2019 23:00:00 18,8 10,4 17,6 16,8 31 17 63 34 S 1018,1 40 0 0,0
11.10.2019 22:00:00 19,3 10,0 17,8 16,8 30 16 53 28 S 1017,6 36 0 0,0
11.10.2019 21:00:00 19,5 9,7 18,2 16,8 28 15 52 28 S 1017,3 35 0 0,0
11.10.2019 20:00:00 20,2 9,1 18,8 16,7 29 16 54 29 S 1017,1 35 0 0,0
11.10.2019 19:00:00 20,8 9,4 19,6 16,6 33 18 51 27 S 1016,8 42 26 0,0
11.10.2019 18:00:00 22,2 8,7 23,4 16,4 26 14 48 26 S 1016,9 49 60 0,0
11.10.2019 17:00:00 23,1 6,8 23,7 16,1 31 17 52 28 S 1016,9 44 60 0,0
11.10.2019 16:00:00 23,7 6,5 25,3 15,8 29 15 50 27 S 1017,2 20 60 0,0
11.10.2019 15:00:00 22,9 7,8 25,3 15,4 29 16 53 28 S 1018,0 48 60 0,0
11.10.2019 14:00:00 21,1 9,0 23,6 15,2 26 14 40 22 S 1019,2 57 60 0,0
11.10.2019 13:00:00 19,1 9,3 22,3 15,1 12 6 21 11 SE 1020,7 60 60 0,0
11.10.2019 12:00:00 16,9 10,0 20,5 15,1 7 4 16 9 ESE 1021,7 20 60 0,0
11.10.2019 11:00:00 13,8 8,6 16,9 15,1 7 4 14 7 S 1022,5 23 60 0,0
11.10.2019 10:00:00 11,9 8,7 11,3 15,3 5 3 9 5 SSE 1022,8 19 60 0,0
11.10.2019 09:00:00 8,6 7,8 3,9 15,4 3 2 5 3 NNE 1022,7 10 28 0,0
11.10.2019 08:00:00 6,8 6,2 3,4 15,6 3 2 9 5 SSE 1022,3 15 0 0,0
11.10.2019 07:00:00 6,5 5,9 3,4 15,8 4 2 6 3 SSE 1022,2 12 0 0,0
11.10.2019 06:00:00 7,1 6,5 4,4 16,0 4 2 6 4 S 1022,2 18 0 0,0
11.10.2019 05:00:00 7,0 6,3 4,4 16,1 3 2 4 2 E 1022,7 11 0 0,0
11.10.2019 04:00:00 7,6 6,7 4,5 16,3 0 0 9 5 N 1023,2 18 0 0,0
11.10.2019 03:00:00 8,5 7,7 5,6 16,5 4 2 8 4 ESE 1023,4 20 0 0,0
11.10.2019 02:00:00 8,6 7,5 5,8 16,6 4 2 7 4 SE 1023,7 19 0 0,0
11.10.2019 01:00:00 9,5 8,3 6,7 16,8 4 2 8 4 S 1023,6 20 0 0,0
11.10.2019 00:00:00 10,5 9,3 7,7 16,9 3 2 11 6 SE 1023,3 20 0 0,0
10.10.2019 23:00:00 10,7 9,0 7,5 17,0 5 3 9 5 SE 1023,4 25 0 0,0
10.10.2019 22:00:00 11,1 9,0 8,4 17,1 4 2 5 3 S 1023,1 30 0 0,0
10.10.2019 21:00:00 12,5 8,8 9,4 17,1 3 2 6 3 SSE 1022,9 47 0 0,0
10.10.2019 20:00:00 14,0 9,0 10,5 17,0 2 1 6 4 SE 1022,7 58 0 0,0
10.10.2019 19:00:00 16,8 8,2 14,9 16,9 0 0 5 3 N 1022,2 57 16 0,0
10.10.2019 18:00:00 17,2 8,6 17,8 16,8 2 1 8 5 WNW 1022,5 60 0 0,0
10.10.2019 17:00:00 18,1 8,9 19,6 16,6 5 3 11 6 ENE 1022,3 56 40 0,0
10.10.2019 16:00:00 16,7 9,6 15,2 16,5 8 5 19 10 WNW 1022,6 59 3 0,0
10.10.2019 15:00:00 16,2 9,6 13,5 16,3 10 5 25 14 WNW 1022,8 10 7 0,0
10.10.2019 14:00:00 17,6 7,9 19,4 16,1 5 3 16 8 NNW 1022,5 60 13 0,0
10.10.2019 13:00:00 17,3 8,2 18,9 16,0 4 2 14 8 E 1022,8 59 5 0,0
10.10.2019 12:00:00 17,2 8,1 18,5 16,0 6 3 14 7 ESE 1023,0 56 44 0,0
10.10.2019 11:00:00 15,2 8,7 13,7 16,0 8 5 13 7 S 1023,1 18 18 0,0
10.10.2019 10:00:00 12,5 8,6 12,4 16,1 5 3 8 4 WSW 1023,1 20 0 0,0
10.10.2019 09:00:00 11,4 9,0 10,3 16,3 3 2 10 5 SSE 1021,9 41 0 0,0
10.10.2019 08:00:00 10,7 8,3 9,2 16,4 3 2 9 5 SE 1021,6 45 0 0,0
10.10.2019 07:00:00 9,9 8,2 5,8 16,5 4 2 9 5 ESE 1021,2 51 0 0,0
10.10.2019 06:00:00 9,3 7,6 6,0 16,6 6 3 10 5 SSW 1021,0 19 0 0,0
10.10.2019 05:00:00 10,7 7,8 7,0 16,8 3 2 11 6 ESE 1020,6 59 0 0,0
10.10.2019 04:00:00 12,7 8,2 10,7 16,9 6 4 16 8 S 1020,2 60 0 0,0
10.10.2019 03:00:00 12,5 8,4 10,1 17,0 13 7 18 10 WSW 1020,1 60 0 0,0
10.10.2019 02:00:00 11,8 9,9 10,3 17,1 4 2 6 3 SW 1020,1 42 0 0,0
10.10.2019 01:00:00 12,3 10,0 11,0 17,2 2 1 7 4 ESE 1019,9 43 0 0,0
10.10.2019 00:00:00 12,5 10,2 10,7 17,3 6 4 14 8 SSE 1019,9 49 0 0,0
09.10.2019 23:00:00 13,5 11,0 10,6 17,4 9 5 12 7 SW 1019,8 37 0 0,0
09.10.2019 22:00:00 13,7 11,0 11,2 17,4 5 3 15 8 SSW 1019,3 44 0 0,0
09.10.2019 21:00:00 14,9 11,5 12,8 17,4 11 6 16 8 SSW 1019,0 48 0 0,0
09.10.2019 20:00:00 15,1 12,0 12,0 17,4 8 4 11 6 SSE 1018,4 42 0 0,0
09.10.2019 19:00:00 16,6 12,5 15,9 17,3 6 4 14 8 SSE 1017,9 30 2 0,0
09.10.2019 18:00:00 18,2 12,9 15,6 17,2 9 5 21 12 SSE 1017,5 47 28 0,0
09.10.2019 17:00:00 17,6 12,5 16,5 17,0 14 7 27 14 S 1017,4 44 3 0,0
09.10.2019 16:00:00 18,2 11,7 19,4 16,9 14 8 26 14 SSE 1017,3 58 28 0,0
09.10.2019 15:00:00 17,1 13,0 16,6 16,9 13 7 23 12 SE 1017,5 30 26 0,0
09.10.2019 14:00:00 14,3 12,8 14,2 17,0 10 5 20 11 E 1018,2 54 0 0,0
09.10.2019 13:00:00 13,3 12,4 12,6 17,0 10 5 17 9 E 1018,8 4,3 0 0,2
09.10.2019 12:00:00 12,5 11,7 11,9 17,1 7 4 16 8 ESE 1018,2 3,6 0 1,8
09.10.2019 11:00:00 12,3 11,4 11,5 17,1 6 3 15 8 ENE 1018,1 3,0 0 4,7
09.10.2019 10:00:00 12,6 11,0 12,0 17,2 6 4 28 15 NNE 1017,3 13 0 1,4
09.10.2019 09:00:00 14,2 13,2 13,6 17,2 12 6 22 12 NNW 1016,4 3,8 0 1,8
09.10.2019 08:00:00 15,4 12,9 14,9 17,2 9 5 23 13 N 1016,0 19 0 0,0
09.10.2019 07:00:00 16,0 13,3 15,5 17,3 11 6 18 10 N 1015,0 55 0 0,0
09.10.2019 06:00:00 16,7 11,4 15,2 17,3 4 2 8 4 NNW 1014,5 59 0 0,0
09.10.2019 05:00:00 17,2 11,5 16,4 17,3 5 3 13 7 E 1014,9 60 0 0,0
09.10.2019 04:00:00 17,9 10,0 16,7 17,3 8 4 10 6 NNW 1014,9 60 0 0,0
09.10.2019 03:00:00 18,4 9,2 17,5 17,4 6 3 21 11 S 1015,6 60 0 0,0
09.10.2019 02:00:00 18,9 9,1 18,2 17,4 14 7 34 19 WSW 1015,5 60 0 0,0
09.10.2019 01:00:00 19,5 8,8 18,9 17,5 22 12 40 22 S 1014,7 60 0 0,0
09.10.2019 00:00:00 20,0 8,6 19,4 17,5 24 13 48 26 S 1014,7 60 0 0,0
08.10.2019 23:00:00 20,2 8,2 19,0 17,6 29 16 49 26 S 1014,6 60 0 0,0
08.10.2019 22:00:00 20,1 8,1 18,9 17,5 22 12 38 21 S 1014,5 60 0 0,0
08.10.2019 21:00:00 20,7 7,3 19,7 17,5 22 12 37 20 S 1014,3 60 0 0,0
08.10.2019 20:00:00 20,9 8,5 19,4 17,4 21 11 35 19 S 1014,2 60 0 0,0

tt = Température de l'air
td = dewpoint
tt 5cm = Température de l'air 5cm
tt -20cm = Température de l'air -20cm
ff = Vitesse du vent
fx = gusts
dd = Direction du vent
ppp = reduced air pressure
vv = visibility
sd = Ensoleillement
rr = Quantités de précipitations

stations d'obs. à proximité